{"data":{"norad_id":57433,"epoch":"2026-09-20T14:16:09.933024Z","epoch_age_seconds":119425,"freshness":"FRESH","line1":"1 57433U 23105D   26263.59455941  .00000133  00000+0  14347-4 0  9993","line2":"2 57433  43.0033  10.1144 0001284 275.1912  84.8794 15.27578839178135","mean_motion":15.27578839,"eccentricity":0.0001284,"inclination_deg":43.0033,"raan_deg":10.1144,"arg_perigee_deg":275.1912,"mean_anomaly_deg":84.8794,"bstar":1.4347e-5,"rev_number":17813,"period_min":94.266820358854,"perigee_km":482.17159575241,"apogee_km":483.93354923463,"semimajor_km":6861.1895724935,"source":"CELESTRAK","updated_at":"2026-09-21T09:00:33.625764Z"}}